This is the latest recevied weather packets stored in our database for station/object N3FYI-5. If no packets are shown the sender has not sent any weather packets the latest 10 day(s).
| Time | Temp. | Humidity | Pressure | Rain* | Wind** | Luminosity | Snow |
|---|---|---|---|---|---|---|---|
| 1777918449 | 20.56° C | 36% | 1016.5 hPa | 0 mm | - | - | - |
| 1777917967 | 20.56° C | 36% | 1016.8 hPa | 0 mm | - | - | - |
| 1777917487 | 20° C | 38% | 1016.8 hPa | 0 mm | - | - | - |
| 1777917009 | 20° C | 39% | 1016.9 hPa | 0 mm | - | - | - |
| 1777916530 | 20° C | 39% | 1017.2 hPa | 0 mm | - | - | - |
| 1777916048 | 19.44° C | 39% | 1017.2 hPa | 0 mm | - | - | - |
| 1777915570 | 19.44° C | 40% | 1017.3 hPa | 0 mm | - | - | - |
| 1777915087 | 19.44° C | 40% | 1017.4 hPa | 0 mm | - | - | - |
| 1777914608 | 19.44° C | 39% | 1017.6 hPa | 0 mm | - | - | - |
| 1777914128 | 19.44° C | 41% | 1017.6 hPa | 0 mm | - | - | - |
| 1777913650 | 18.89° C | 41% | 1017.7 hPa | 0 mm | - | - | - |
| 1777913174 | 18.89° C | 42% | 1017.8 hPa | 0 mm | - | - | - |
| 1777912688 | 18.89° C | 41% | 1017.8 hPa | 0 mm | - | - | - |
| 1777912208 | 19.44° C | 42% | 1018 hPa | 0 mm | - | - | - |
| 1777911729 | 18.89° C | 43% | 1018 hPa | 0 mm | - | - | - |
| 1777911252 | 18.33° C | 42% | 1018 hPa | 0 mm | - | - | - |
| 1777910772 | 18.33° C | 44% | 1018.1 hPa | 0 mm | - | - | - |
| 1777910288 | 17.78° C | 45% | 1018.1 hPa | 0 mm | - | - | - |
| 1777909809 | 17.78° C | 45% | 1018.3 hPa | 0 mm | - | - | - |
| 1777909327 | 17.78° C | 45% | 1018.5 hPa | 0 mm | - | - | - |
| 1777908847 | 17.22° C | 47% | 1018.7 hPa | 0 mm | - | - | - |
| 1777908370 | 16.11° C | 49% | 1018.8 hPa | 0 mm | - | - | - |
| 1777907889 | 16.11° C | 48% | 1018.9 hPa | 0 mm | - | - | - |
| 1777907408 | 15.56° C | 48% | 1019 hPa | 0 mm | - | - | - |
| 1777906449 | 14.44° C | 49% | 1019.2 hPa | 0 mm | - | - | - |
* Rain latest hour (hover to see other rain measurements)
** Current wind speed in m/s (hover to see current wind gust speed)